Location: Holiday Acres Laynes 2 Mobile Home Park
(26.7249°N, 81.8671°W)
Time: 13:28:02
(UTC+00:00)

Cosmos 1125 Rocket - Visible Passes

Search period start: 12 April 2021 00:00
Search period end: 22 April 2021 00:00
Orbit: 757 x 780 km, 74.0° (Epoch: 11 April)

Date Brightness Start Highest point End Pass type
(mag) Time Alt. Az. Time Alt. Az. Time Alt. Az.
13 Apr 3.9 10:11:35 10° S 10:16:50 69° ESE 10:22:05 10° NNE visible
14 Apr 5.0 09:35:17 10° SSE 09:40:04 36° E 09:44:52 10° NE visible
15 Apr 5.9 08:59:43 10° SE 09:03:23 19° E 09:07:03 10° NE visible
16 Apr 3.5 10:02:57 10° SSW 10:08:11 64° WNW 10:13:26 10° N visible
17 Apr 3.8 09:27:14 17° S 09:31:21 68° ESE 09:36:35 10° NNE visible
18 Apr 4.9 08:51:54 22° SSE 08:54:35 35° E 08:59:21 10° NE visible
18 Apr 5.0 10:32:57 10° WSW 10:36:38 19° WNW 10:40:20 10° NNW visible
19 Apr 5.7 08:16:27 17° ESE 08:17:54 19° E 08:21:30 10° NE visible
19 Apr 4.2 09:56:47 21° WSW 09:59:37 34° WNW 10:04:24 10° N visible
20 Apr 3.5 09:21:13 45° SW 09:22:41 65° WNW 09:27:55 10° N visible
21 Apr 3.7 08:45:33 65° SE 08:45:51 67° ESE 08:51:05 10° NNE visible
21 Apr 5.6 10:28:02 10° WNW 10:28:16 10° WNW 10:28:30 10° WNW visible
